Location: Cutler
(25.6150°N, 80.3110°W)
Time: 02:47:24
(UTC-05:00)

Vanguard 2 Rocket - Visible Passes

Search period start: 19 February 2018 00:00
Search period end: 01 March 2018 00:00
Orbit: 555 x 3327 km, 32.9° (Epoch: 18 February)

Date Brightness Start Highest point End Pass type
(mag) Time Alt. Az. Time Alt. Az. Time Alt. Az.
19 Feb 10.4 01:18:55 30° ENE 01:18:55 30° ENE 01:26:50 10° ENE visible
19 Feb 9.4 03:24:43 71° NNW 03:27:02 76° NNE 03:46:15 10° E visible
19 Feb 9.5 05:30:32 21° WNW 05:46:26 71° SSW 06:02:00 10° SE visible
19 Feb 9.2 19:28:50 10° SSE 19:33:55 18° SE 19:35:21 17° ESE visible
19 Feb 9.2 21:37:28 10° SW 21:41:12 32° SW 21:41:12 32° SW visible
20 Feb 11.0 00:22:45 13° ENE 00:22:45 13° ENE 00:24:02 10° ENE visible
20 Feb 9.7 02:28:33 60° ENE 02:28:33 60° ENE 02:44:27 10° E visible
20 Feb 9.4 04:34:21 42° WNW 04:44:23 84° SSW 05:01:57 10° ESE visible
20 Feb 8.5 20:39:01 10° SSW 20:45:27 45° SSE 20:45:27 45° SSE visible
20 Feb 10.3 22:51:06 10° WSW 22:51:18 11° WSW 22:51:18 11° WSW visible
21 Feb 10.3 01:32:27 35° ENE 01:32:27 35° ENE 01:41:59 10° E visible
21 Feb 9.4 03:38:15 70° NW 03:41:53 85° NNE 04:01:07 10° ESE visible
21 Feb 9.6 05:44:04 17° WNW 06:00:27 55° SW 06:15:49 10° SE visible
21 Feb 8.7 19:41:15 10° SSW 19:47:29 29° SE 19:49:43 27° ESE visible
21 Feb 9.2 21:51:51 10° WSW 21:55:33 33° WSW 21:55:33 33° WSW visible
22 Feb 10.9 00:36:24 16° ENE 00:36:24 16° ENE 00:39:04 10° ENE visible
22 Feb 9.5 02:42:13 69° ENE 02:42:13 69° ENE 02:59:31 10° ESE visible
22 Feb 9.5 04:48:02 37° WNW 04:58:42 70° SSW 05:16:07 10° SE visible
22 Feb 9.1 18:44:51 10° SSE 18:48:32 15° SE 18:53:11 10° E visible
22 Feb 8.1 20:53:03 10° SW 20:59:49 64° S 20:59:49 64° S visible
22 Feb10.423:40:25ENE23:40:25ENE23:05:40Wvisible
23 Feb 10.1 01:46:15 40° E 01:46:15 40° E 01:57:11 10° E visible
23 Feb 9.4 03:52:04 66° W 03:56:28 83° SSW 04:15:38 10° ESE visible
23 Feb 9.9 05:57:54 14° W 06:14:15 41° SW 06:29:03 10° SSE visible
23 Feb 8.1 19:54:44 10° SSW 20:01:17 46° SE 20:04:05 38° ESE visible
23 Feb 9.3 22:06:33 10° WSW 22:09:55 30° W 22:09:55 30° W visible
24 Feb 10.8 00:50:20 19° E 00:50:20 19° E 00:54:15 10° E visible
24 Feb 9.4 02:56:10 77° E 02:56:10 77° E 03:14:21 10° ESE visible
24 Feb 9.7 05:02:00 32° W 05:12:45 55° SW 05:29:48 10° SE visible
24 Feb 8.5 18:57:05 10° S 19:02:11 26° SE 19:08:18 14° E visible
24 Feb 8.0 21:07:30 10° WSW 21:14:09 73° WSW 21:14:09 73° WSW visible
24 Feb10.523:54:29E23:54:29E23:19:58Wvisible
25 Feb 10.0 02:00:20 45° E 02:00:20 45° E 02:12:15 10° ESE visible
25 Feb 9.4 04:06:09 58° W 04:10:47 68° SSW 04:29:43 10° SE visible
25 Feb 10.2 06:12:14 10° W 06:27:59 29° SW 06:41:32 10° S visible
25 Feb 7.7 20:08:49 10° SW 20:15:25 68° SSE 20:18:21 48° E visible
25 Feb 9.6 22:21:27 10° W 22:24:11 25° W 22:24:11 25° W visible
26 Feb 10.7 01:04:32 21° E 01:04:32 21° E 01:09:28 10° E visible
26 Feb 9.4 03:10:23 77° SSE 03:10:23 77° SSE 03:28:48 10° ESE visible
26 Feb 9.9 05:16:14 26° W 05:26:39 41° SW 05:42:54 10° SSE visible
26 Feb 7.8 19:10:34 10° SSW 19:16:03 43° SE 19:22:31 18° E visible
26 Feb 8.3 21:22:13 10° W 21:28:21 62° WNW 21:28:21 62° WNW visible
27 Feb10.600:08:48E00:08:48E23:34:10WNWvisible
27 Feb 9.9 02:14:39 47° ESE 02:14:39 47° ESE 02:27:03 10° ESE visible
27 Feb 9.5 04:20:29 48° WSW 04:24:54 54° SW 04:43:17 10° SE visible
27 Feb 7.6 20:23:18 10° WSW 20:29:55 87° NNW 20:32:28 55° ENE visible
27 Feb 9.8 22:36:25 10° W 22:38:18 20° WNW 22:38:18 20° WNW visible
28 Feb 10.6 01:18:56 23° ESE 01:18:56 23° ESE 01:24:32 10° ESE visible
28 Feb 9.4 03:24:47 64° S 03:24:47 64° S 03:42:47 10° SE visible
28 Feb 10.2 05:30:38 20° W 05:40:33 29° SW 05:55:12 10° S visible
28 Feb 7.3 19:24:41 10° SW 19:30:16 69° SSE 19:36:34 22° ENE visible
28 Feb 8.6 21:37:08 10° W 21:42:23 48° WNW 21:42:23 48° WNW visible
